FW1480 Weather Reports


Display with metric or nautical units.
time (UTC)temp
F
wind
direction
speed
MPH
gust
MPH
rain 1hr
in
rain 24hr
in
rain mn
in
humidity
%
barometer
mb
20260505082624 0 0.0 0.0 0.00 0.00 0.00 1011.4
20260505082116 0 0.0 0.0 0.00 0.00 0.00 1011.5
20260505081630 0 0.0 0.0 0.00 0.00 0.00 1011.5
20260505080525 0 0.0 0.0 0.00 0.00 0.00 1011.5
20260505080023 0 0.0 0.0 0.00 0.00 0.00 1011.6
20260505075515 0 0.0 0.0 0.00 0.00 0.00 1011.5
20260505075018 0 0.0 0.0 0.00 0.00 0.00 1011.5
20260505074423 0 196 0.0 0.0 0.00 0.00 0.00 1011.4
20260505073923 53 196 0.0 0.0 0.00 0.00 0.00 76 1011.4
20260505072910 54 197 0.0 0.0 0.00 0.00 0.00 75 1011.5
20260505072411 54 197 0.0 0.0 0.00 0.00 0.00 74 1011.6
20260505071408 55 198 0.0 0.0 0.00 0.00 0.00 73 1011.4
20260505070906 55 197 0.0 0.0 0.00 0.00 0.00 72 1011.3
20260505065903 56 218 0.0 0.0 0.00 0.00 0.00 71 1011.2
20260505065356 56 220 0.0 0.0 0.00 0.00 0.00 71 1011.3
20260505064850 56 226 0.0 0.0 0.00 0.00 0.00 71 1011.4
20260505064344 56 202 0.0 0.0 0.00 0.00 0.00 70 1011.3
20260505063838 56 204 0.0 0.0 0.00 0.00 0.00 70 1011.4
20260505063332 56 226 0.0 0.0 0.00 0.00 0.00 69 1011.5
20260505062320 56 217 0.0 0.0 0.00 0.00 0.00 68 1011.4
20260505061813 57 199 0.0 1.0 0.00 0.00 0.00 68 1011.6
20260505060812 57 204 0.0 0.0 0.00 0.00 0.00 67 1011.6
20260505055309 57 203 0.0 1.0 0.00 0.00 0.00 66 1011.6
20260505054809 57 217 0.0 1.0 0.00 0.00 0.00 65 1011.9
20260505054312 57 218 0.0 0.0 0.00 0.00 0.00 65 1011.7
20260505053811 57 198 0.0 0.0 0.00 0.00 0.00 65 1011.7
20260505053310 58 167 0.0 0.0 0.00 0.00 0.00 65 1011.9
20260505052807 58 195 0.0 0.0 0.00 0.00 0.00 64 1011.9
20260505052305 58 202 0.0 0.0 0.00 0.00 0.00 63 1011.9
20260505051806 58 200 0.0 1.0 0.00 0.00 0.00 63 1012.1
20260505051305 58 209 0.0 1.0 0.00 0.00 0.00 63 1012.1
20260505050803 58 215 0.0 1.0 0.00 0.00 0.00 63 1012.1
20260505050303 58 210 0.0 1.0 0.00 0.00 0.00 63 1012.1
20260505041746 58 202 0.0 0.0 0.00 0.00 0.00 64 1012.5
20260505041246 58 205 0.0 0.0 0.00 0.00 0.00 64 1012.4
20260505040746 58 213 0.0 0.0 0.00 0.00 0.00 64 1012.4
20260505040244 58 229 0.0 0.0 0.00 0.00 0.00 64 1012.4
20260505035741 58 215 0.0 0.0 0.00 0.00 0.00 65 1012.5
20260505035241 58 208 0.0 0.0 0.00 0.00 0.00 65 1012.4
20260505034742 58 214 0.0 0.0 0.00 0.00 0.00 66 1012.4
20260505034242 57 210 0.0 0.0 0.00 0.00 0.00 66 1012.4
20260505033739 57 203 0.0 0.0 0.00 0.00 0.00 66 1012.4
20260505033239 57 210 0.0 0.0 0.00 0.00 0.00 67 1012.3
20260505032737 57 210 0.0 0.0 0.00 0.00 0.00 67 1012.4
20260505032236 58 205 0.0 0.0 0.00 0.00 0.00 67 1012.4
20260505031736 57 205 0.0 0.0 0.00 0.00 0.00 67 1012.4
20260505031236 57 171 0.0 3.0 0.00 0.00 0.00 67 1012.3
20260505030736 57 200 0.0 3.0 0.00 0.00 0.00 67 1012.4
20260505030234 57 205 0.0 0.0 0.00 0.00 0.00 68 1012.4
20260505025734 57 205 0.0 0.0 0.00 0.00 0.00 69 1012.3
20260505024734 57 217 0.0 1.0 0.00 0.00 0.00 69 1012.3
20260505024236 57 206 0.0 2.0 0.00 0.00 0.00 70 1012.4
20260505023735 57 212 0.0 2.0 0.00 0.00 0.00 70 1012.4
20260505023235 57 217 0.0 0.0 0.00 0.00 0.00 70 1012.4
20260505022735 57 207 0.0 0.0 0.00 0.00 0.00 70 1012.3
20260505021734 57 210 0.0 0.0 0.00 0.00 0.00 69 1012.4
20260505021234 57 201 0.0 0.0 0.00 0.00 0.00 69 1012.5
20260505020732 57 215 0.0 1.0 0.00 0.00 0.00 70 1012.5
20260505020233 57 205 0.0 1.0 0.00 0.00 0.00 70 1012.5
20260505015732 57 210 0.0 1.0 0.00 0.00 0.00 70 1012.5
20260505015234 57 194 0.0 0.0 0.00 0.00 0.00 70 1012.4
20260505014731 56 205 0.0 1.0 0.00 0.00 0.00 69 1012.4
20260505014231 56 200 0.0 1.0 0.00 0.00 0.00 70 1012.4
20260505013733 56 204 0.0 0.0 0.00 0.00 0.00 70 1012.4
20260505013225 56 179 0.0 0.0 0.00 0.00 0.00 69 1012.3
20260505012213 57 213 0.0 0.0 0.00 0.00 0.00 69 1012.3
20260505011707 57 205 0.0 0.0 0.00 0.00 0.00 68 1012.1
20260505011200 57 206 0.0 0.0 0.00 0.00 0.00 67 1012.0
20260505010655 57 212 0.0 0.0 0.00 0.00 0.00 67 1012.0
20260505010148 57 220 0.0 0.0 0.00 0.00 0.00 66 1012.0
20260505005643 58 226 0.0 0.0 0.00 0.00 0.00 66 1011.9
20260505005136 58 148 0.0 0.0 0.00 0.00 0.00 65 1012.0
20260505004630 58 219 0.0 1.0 0.00 0.00 0.00 64 1011.9
20260505003617 58 207 0.0 6.0 0.00 0.00 0.00 63 1011.6
20260505003111 59 204 0.0 0.0 0.00 0.00 0.00 62 1011.5
20260505002604 59 200 0.0 1.0 0.00 0.00 0.00 62 1011.5
20260505001553 60 191 0.0 0.0 0.00 0.00 0.00 60 1011.3
20260505001046 60 231 0.0 0.0 0.00 0.00 0.00 60 1011.3
20260505000034 60 215 0.0 2.0 0.00 0.00 0.00 58 1011.1
20260504235528 61 200 0.0 2.0 0.00 0.00 0.00 58 1011.1
20260504235023 61 222 0.0 2.0 0.00 0.00 0.00 57 1010.9
20260504234517 61 160 0.0 2.0 0.00 0.00 0.00 57 1010.7
20260504234010 62 158 0.0 3.0 0.00 0.00 0.00 56 1010.7
20260504233505 62 221 1.0 8.0 0.00 0.00 0.00 55 1010.6
20260504232958 62 219 1.0 8.0 0.00 0.00 0.00 55 1010.6
20260504231951 62 201 0.0 3.0 0.00 0.00 0.00 54 1010.4
20260504231451 63 210 0.0 3.0 0.00 0.00 0.00 54 1010.4
20260504230951 63 210 0.0 3.0 0.00 0.00 0.00 54 1010.3
20260504230450 63 246 0.0 6.0 0.00 0.00 0.00 53 1010.2
20260504225948 63 239 0.0 6.0 0.00 0.00 0.00 52 1010.3
20260504225448 64 210 1.0 4.0 0.00 0.00 0.00 53 1010.2
20260504224947 64 217 1.0 4.0 0.00 0.00 0.00 52 1010.2
20260504224446 64 235 1.0 6.0 0.00 0.00 0.00 51 1010.1
20260504223446 65 211 1.0 4.0 0.00 0.00 0.00 51 1010.1
20260504222948 65 167 1.0 5.0 0.00 0.00 0.00 51 1010.1
20260504221946 66 200 0.0 6.0 0.00 0.00 0.00 49 1010.1
20260504221446 67 242 0.0 5.0 0.00 0.00 0.00 48 1010.1
20260504220946 67 150 1.0 7.0 0.00 0.00 0.00 47 1010.2
20260504220446 67 250 1.0 7.0 0.00 0.00 0.00 46 1010.2
20260504215947 68 217 1.0 6.0 0.00 0.00 0.00 46 1010.3
20260504215440 69 225 1.0 6.0 0.00 0.00 0.00 44 1010.3
20260504213938 69 140 0.0 8.0 0.00 0.00 0.00 38 1010.3
20260504212439 69 188 0.0 4.0 0.00 0.00 0.00 37 1010.4
20260504211938 70 189 0.0 3.0 0.00 0.00 0.00 39 1010.3
20260504211438 70 83 0.0 5.0 0.00 0.00 0.00 38 1010.4
20260504210939 69 190 0.0 7.0 0.00 0.00 0.00 39 1010.4
20260504210438 69 210 0.0 7.0 0.00 0.00 0.00 38 1010.4
20260504205938 69 203 1.0 10.0 0.00 0.00 0.00 39 1010.4
20260504204939 69 196 0.0 7.0 0.00 0.00 0.00 38 1010.3
20260504204439 70 160 0.0 2.0 0.00 0.00 0.00 38 1010.4
20260504203939 69 211 0.0 3.0 0.00 0.00 0.00 38 1010.5
20260504203439 70 50 0.0 3.0 0.00 0.00 0.00 37 1010.4
20260504202437 69 150 1.0 7.0 0.00 0.00 0.00 38 1010.5
20260504201937 69 219 2.0 8.0 0.00 0.00 0.00 36 1010.3
20260504201438 69 213 2.0 10.0 0.00 0.00 0.00 36 1010.4
20260504200938 69 207 1.0 10.0 0.00 0.00 0.00 35 1010.6
20260504200438 70 207 1.0 6.0 0.00 0.00 0.00 36 1010.6
20260504195938 69 198 1.0 6.0 0.00 0.00 0.00 35 1010.7
20260504195437 70 157 1.0 6.0 0.00 0.00 0.00 35 1010.8
20260504194939 70 233 1.0 8.0 0.00 0.00 0.00 38 1010.8
20260504194439 70 196 0.0 8.0 0.00 0.00 0.00 36 1010.7
20260504193938 69 207 1.0 6.0 0.00 0.00 0.00 38 1010.7
20260504193438 70 203 1.0 6.0 0.00 0.00 0.00 36 1010.8
20260504192440 70 111 0.0 4.0 0.00 0.00 0.00 36 1010.9
20260504191933 70 210 0.0 7.0 0.00 0.00 0.00 36 1010.9
20260504191426 70 98 1.0 7.0 0.00 0.00 0.00 34 1011.1
20260504190920 69 160 1.0 6.0 0.00 0.00 0.00 36 1011.1
20260504190417 69 174 1.0 6.0 0.00 0.00 0.00 37 1011.1
20260504185917 69 210 1.0 6.0 0.00 0.00 0.00 36 1011.0
20260504184918 69 141 1.0 8.0 0.00 0.00 0.00 36 1011.1
20260504184418 69 162 0.0 4.0 0.00 0.00 0.00 36 1011.2
20260504183917 69 193 0.0 4.0 0.00 0.00 0.00 37 1011.2
20260504183419 69 255 0.0 3.0 0.00 0.00 0.00 36 1011.4
20260504182915 70 163 0.0 4.0 0.00 0.00 0.00 37 1011.1
20260504182415 70 217 1.0 6.0 0.00 0.00 0.00 36 1011.1
20260504181917 69 169 1.0 6.0 0.00 0.00 0.00 37 1011.3
20260504181417 69 105 1.0 9.0 0.00 0.00 0.00 37 1011.3
20260504180915 69 138 1.0 9.0 0.00 0.00 0.00 37 1011.4
20260504180414 69 231 1.0 6.0 0.00 0.00 0.00 37 1011.4
20260504175413 68 208 2.0 5.0 0.00 0.00 0.00 35 1011.6
20260504174913 69 307 2.0 8.0 0.00 0.00 0.00 39 1011.6
20260504174408 69 204 1.0 9.0 0.00 0.00 0.00 36 1011.5
20260504173902 69 208 1.0 9.0 0.00 0.00 0.00 36 1011.6
20260504173356 69 160 1.0 7.0 0.00 0.00 0.00 38 1011.7
20260504172344 69 160 1.0 7.0 0.00 0.00 0.00 39 1011.7
20260504171838 69 148 1.0 7.0 0.00 0.00 0.00 37 1012.0
20260504171331 69 192 1.0 4.0 0.00 0.00 0.00 35 1012.0
20260504170320 69 231 0.0 4.0 0.00 0.00 0.00 38 1012.2
20260504160233 65 223 1.0 9.0 0.00 0.00 0.00 39 1012.6
20260504150727 64 233 1.0 7.0 0.00 0.00 0.00 41 1013.4
20260504140725 62 221 1.0 9.0 0.00 0.00 0.00 43 1013.9
20260504140225 61 308 1.0 9.0 0.00 0.00 0.00 44 1013.9
20260504130719 56 212 0.0 2.0 0.00 0.00 0.00 52 1014.2
20260504130219 56 180 0.0 2.0 0.00 0.00 0.00 54 1014.3
20260504120122 0 0.0 0.0 0.00 0.00 0.00 1014.5
20260504110218 0 0.0 0.0 0.00 0.00 0.00 1014.2